Tracking 30303 objects as of 20-Apr-2025
HD Live streaming from Space Station
objects crossing your sky now

STARLINK-1274

Track STARLINK-1274 now!
10-day predictions
STARLINK-1274 is classified as:


NORAD ID: 45387
Int'l Code: 2020-019AD
Perigee: 553.3 km
Apogee: 555.3 km
Inclination: 53.1 °
Period: 95.6 minutes
Semi major axis: 6925 km
RCS: Unknown
Launch date: March 18, 2020
Source: United States (US)
Launch site: AIR FORCE EASTERN TEST RANGE (AFETR)
Your satellite tracking list
Your tracking list is empty




NASA's NSSDC Master Catalog

Two Line Element Set (TLE):
1 45387U 20019AD  25109.52657364  .00015160  00000-0  10338-2 0  9994
2 45387  53.0527 161.8410 0001468  81.5913 278.5242 15.06422545281148
Source of the keplerian elements: AFSPC